Regional Weather Roundup
Issued by NWS

Home | Current Version | Previous Version | Text Only | Print | Product List | Glossary Off
Versions: 1 2 3 4 5 6 7 8 9 10 11 12 13 14 15 16 17 18 19 20 21 22 23 24 25 26 27 28 29 30 31 32 33 34 35 36 37 38 39 40 41 42 43 44 45 46 47 48

000
ASUS45 KCYS 300510
RWRWY

WYOMING REGIONAL WEATHER ROUNDUP
NATIONAL WEATHER SERVICE CHEYENNE WY
1100 PM MDT SAT AUG 29 2015

NOTE:  "FAIR" INDICATES FEW OR NO CLOUDS BELOW 12,000 FEET
WITH NO SIGNIFICANT WEATHER AND/OR OBSTRUCTIONS TO VISIBILITY.

WYZ001-300600-
YELLOWSTONE NATIONAL PARK

CITY           SKY/WX    TMP DP  RH WIND       PRES   REMARKS
LK YELLOWSTONE   N/A     60  40  47 VRB6      30.26R
W YELLOWSTONE  NOT AVBL

$$
WYZ002>013-054>058-071-098>099-300600-
NORTHERN WYOMING

CITY           SKY/WX    TMP DP  RH WIND       PRES   REMARKS
JACKSON        FAIR      68  43  40 W3        30.08S
CODY           FAIR      73  39  29 S8        29.93F
GREYBULL       FAIR      74  41  30 S3        29.83F
WORLAND        FAIR      74  39  28 S10       29.86F
SHERIDAN       FAIR      67  42  40 W3        29.85F
BUFFALO        FAIR      73  35  25 E5        29.95F
GILLETTE       FAIR      75  35  23 S14       29.92S
HULETT         FAIR      82  34  17 S23G31    29.93F
NEWCASTLE      FAIR      79  34  19 SE17      29.99S

$$
WYZ014>020-022>026-101>103-300600-
CENTRAL WYOMING

CITY           SKY/WX    TMP DP  RH WIND       PRES   REMARKS
BIG PINEY      FAIR      60  38  43 CALM      30.15F
PINEDALE       FAIR      57  43  58 CALM      30.16F
DUBOIS         FAIR      61  39  44 NW9       30.14F
LANDER         FAIR      74  38  27 SW6       29.99F
RIVERTON       FAIR      73  37  27 SW9       30.00F
CASPER         FAIR      66  30  26 W6        30.02S
DOUGLAS        FAIR      66  32  28 SE8       30.03S

$$
WYZ021-027>030-104>119-300600-
SOUTHERN WYOMING

CITY           SKY/WX    TMP DP  RH WIND       PRES   REMARKS
EVANSTON       FAIR      66  37  34 S7        30.16S
KEMMERER       MOCLDY    68  32  26 SE6       30.17F
FORT BRIDGER   PTCLDY    68  32  26 S13       30.19S
ROCK SPRINGS   FAIR      71  32  23 S7        30.14F
DIXON          FAIR      61  32  33 CALM      30.21S
RAWLINS        FAIR      68  27  21 SW5       30.18F
SARATOGA       FAIR      61  34  36 SE12      30.22S
LARAMIE        FAIR      59  39  47 S12       30.24F
CHEYENNE       FAIR      69  42  37 S13       30.18F
TORRINGTON     FAIR      68  42  38 E7        30.03S
PINE BLUFFS    FAIR      68  37  32 S12       30.14S

$$


USA.gov is the U.S. government's official web portal to all federal, state and local government web resources and services.